Lambertville, MI

3:23 AM EDT on April 24, 2018 (GMT -0400)
Lambertville

Weather History for KDUH - February, 2013

Change the Weather History Date:

Friday, February 15, 2013

  Actual Average (KTOL) Record (KTOL)
Temperature  
Mean Temperature 30 °F -  
Max Temperature 34 °F 34 °F 70 °F (1954)
Min Temperature 26 °F 20 °F -8 °F (2007)
Degree Days  
Heating Degree Days 35    
Moisture  
Dew Point 19 °F    
Average Humidity 62    
Maximum Humidity 78    
Minimum Humidity 46    
Precipitation  
Precipitation 0.00 in - - ()
Sea Level Pressure  
Sea Level Pressure 30.03 in    
Wind  
Wind Speed 8 mph (WNW)    
Max Wind Speed 12 mph    
Max Gust Speed 20 mph    
Visibility 10 miles    
Events      
Averages and records for this station are not official NWS values.
T = Trace of Precipitation, MM = Missing Value Source: NWS Daily Summary

Daily Weather History Graph

Daily Weather History Graph

Search for Another Location

Airport or City:

Astronomy

Feb. 15, 2013 Rise Set
Actual Time 7:29 AM EST 6:08 PM EST
Civil Twilight 7:01 AM EST 6:36 PM EST
Nautical Twilight 6:28 AM EST 7:09 PM EST
Astronomical Twilight 5:56 AM EST 7:41 PM EST
Moon 9:59 AM EST (2/15) No Moon Set
Length of Visible Light 11h 35m
Length of Day
10h 38m
Waxing Crescent, 30% of the Moon is Illuminated
Feb 15
Waxing Crescent
Feb 17
First Quarter
Feb 25
Full
Mar 4
Last Quarter
Mar 11
New

Hourly Weather History & Observations

Time (EST) Temp. Windchill Dew Point Humidity Pressure Visibility Wind Dir Wind Speed Gust Speed Precip Events Conditions
12:15 AM 34.7 °F 26.4 °F 24.8 °F 67% 29.89 in 10.0 mi West 11.5 mph 19.6 mph N/A   Overcast
12:35 AM 33.8 °F 26.4 °F 25.2 °F 71% 29.89 in 10.0 mi West 9.2 mph - N/A   Mostly Cloudy
12:55 AM 33.4 °F 25.9 °F 24.6 °F 70% 29.90 in 10.0 mi West 9.2 mph 16.1 mph N/A   Scattered Clouds
1:15 AM 32.9 °F 25.9 °F 24.8 °F 72% 29.90 in 10.0 mi West 8.1 mph - N/A   Clear
1:35 AM 32.4 °F 25.3 °F 24.8 °F 74% 29.90 in 10.0 mi West 8.1 mph - N/A   Clear
1:55 AM 32.0 °F 24.8 °F 24.6 °F 74% 29.90 in 10.0 mi West 8.1 mph - N/A   Clear
2:15 AM 32.0 °F 24.8 °F 24.6 °F 74% 29.90 in 10.0 mi West 8.1 mph - N/A   Clear
2:35 AM 32.0 °F 26.4 °F 24.6 °F 74% 29.91 in 10.0 mi West 5.8 mph - N/A   Clear
2:55 AM 31.8 °F 25.4 °F 24.4 °F 74% 29.91 in 10.0 mi West 6.9 mph - N/A   Clear
3:15 AM 32.0 °F 26.4 °F 24.6 °F 74% 29.91 in 10.0 mi West 5.8 mph - N/A   Scattered Clouds
3:35 AM 31.6 °F 25.1 °F 24.6 °F 75% 29.92 in 10.0 mi West 6.9 mph - N/A   Scattered Clouds
3:55 AM 31.5 °F 24.9 °F 24.6 °F 76% 29.92 in 10.0 mi WSW 6.9 mph - N/A   Scattered Clouds
4:15 AM 31.8 °F 26.2 °F 24.8 °F 75% 29.93 in 10.0 mi WSW 5.8 mph - N/A   Mostly Cloudy
4:35 AM 31.6 °F 25.1 °F 24.8 °F 76% 29.93 in 10.0 mi WSW 6.9 mph - N/A   Mostly Cloudy
4:55 AM 32.0 °F 25.6 °F 24.8 °F 75% 29.94 in 10.0 mi WSW 6.9 mph - N/A   Overcast
5:15 AM 32.0 °F 28.7 °F 24.8 °F 75% 29.95 in 10.0 mi WSW 3.5 mph - N/A   Overcast
5:35 AM 32.0 °F 26.4 °F 24.8 °F 75% 29.95 in 10.0 mi West 5.8 mph - N/A   Overcast
5:55 AM 32.0 °F 26.4 °F 25.3 °F 76% 29.96 in 10.0 mi West 5.8 mph - N/A   Overcast
6:15 AM 32.0 °F 24.8 °F 25.7 °F 78% 29.97 in 10.0 mi West 8.1 mph - N/A   Overcast
6:35 AM 32.0 °F 26.4 °F 25.0 °F 75% 29.98 in 10.0 mi WNW 5.8 mph - N/A   Overcast
6:55 AM 32.0 °F 26.4 °F 23.5 °F 71% 29.99 in 10.0 mi NW 5.8 mph - N/A   Overcast
7:15 AM 31.5 °F 23.5 °F 23.0 °F 71% 29.99 in 10.0 mi NW 9.2 mph 18.4 mph N/A   Overcast
7:35 AM 30.9 °F 23.5 °F 22.3 °F 70% 30.00 in 10.0 mi NNW 8.1 mph - N/A   Overcast
7:55 AM 30.7 °F 26.0 °F 22.5 °F 71% 30.01 in 10.0 mi WNW 4.6 mph - N/A   Overcast
8:15 AM 30.7 °F 26.0 °F 23.0 °F 73% 30.02 in 10.0 mi NW 4.6 mph - N/A   Overcast
8:35 AM 30.2 °F 23.4 °F 23.0 °F 75% 30.03 in 10.0 mi North 6.9 mph - N/A   Overcast
8:55 AM 30.4 °F 23.6 °F 21.7 °F 70% 30.04 in 10.0 mi NW 6.9 mph - N/A   Overcast
9:15 AM 30.2 °F 24.3 °F 19.4 °F 64% 30.05 in 10.0 mi NW 5.8 mph - N/A   Overcast
9:35 AM 30.6 °F 23.1 °F 19.0 °F 62% 30.05 in 10.0 mi NW 8.1 mph - N/A   Overcast
9:55 AM 30.2 °F 22.6 °F 17.6 °F 60% 30.06 in 10.0 mi NNW 8.1 mph - N/A   Overcast
10:15 AM 29.8 °F 22.2 °F 17.4 °F 60% 30.07 in 10.0 mi NNW 8.1 mph - N/A   Overcast
10:35 AM 29.5 °F 21.8 °F 17.1 °F 60% 30.07 in 10.0 mi NNW 8.1 mph - N/A   Overcast
10:55 AM 29.7 °F 22.0 °F 16.9 °F 59% 30.08 in 10.0 mi NNW 8.1 mph - N/A   Overcast
11:15 AM 29.8 °F 23.0 °F 16.9 °F 59% 30.08 in 10.0 mi NNW 6.9 mph - N/A   Overcast
11:35 AM 30.2 °F 21.3 °F 16.9 °F 58% 30.08 in 10.0 mi North 10.4 mph - N/A   Overcast
11:55 AM 30.2 °F 23.4 °F 17.1 °F 58% 30.08 in 10.0 mi NNW 6.9 mph - N/A   Overcast
12:15 PM 30.7 °F 22.6 °F 17.4 °F 58% 30.08 in 10.0 mi NNW 9.2 mph - N/A   Overcast
12:55 PM 31.1 °F 23.7 °F 18.0 °F 58% 30.07 in 10.0 mi WNW 8.1 mph - N/A   Overcast
1:15 PM 31.8 °F 24.6 °F 17.6 °F 56% 30.06 in 10.0 mi NW 8.1 mph - N/A   Overcast
1:35 PM 32.0 °F 26.4 °F 17.8 °F 56% 30.06 in 10.0 mi WNW 5.8 mph - N/A   Overcast
1:55 PM 33.3 °F 26.4 °F 17.8 °F 53% 30.05 in 10.0 mi WNW 8.1 mph - N/A   Mostly Cloudy
2:15 PM 32.4 °F 25.3 °F 17.4 °F 54% 30.05 in 10.0 mi West 8.1 mph - N/A   Mostly Cloudy
2:35 PM 32.2 °F 25.0 °F 15.4 °F 50% 30.05 in 10.0 mi WNW 8.1 mph - N/A   Overcast
2:55 PM 32.2 °F 23.8 °F 15.4 °F 50% 30.05 in 10.0 mi NW 10.4 mph 17.3 mph N/A   Overcast
3:15 PM 32.0 °F 24.8 °F 16.0 °F 52% 30.05 in 10.0 mi WNW 8.1 mph - N/A   Overcast
3:35 PM 32.4 °F 24.0 °F 14.5 °F 48% 30.06 in 10.0 mi WNW 10.4 mph 19.6 mph N/A   Overcast
3:55 PM 32.0 °F 24.2 °F 13.6 °F 47% 30.06 in 10.0 mi NW 9.2 mph 18.4 mph N/A   Overcast
4:15 PM 31.8 °F 23.3 °F 13.6 °F 47% 30.07 in 10.0 mi WNW 10.4 mph 17.3 mph N/A   Mostly Cloudy
4:35 PM 31.5 °F 23.5 °F 13.1 °F 47% 30.08 in 10.0 mi WNW 9.2 mph - N/A   Overcast
4:55 PM 31.8 °F 25.4 °F 14.4 °F 49% 30.08 in 10.0 mi NW 6.9 mph - N/A   Overcast
5:15 PM 32.0 °F 24.8 °F 13.3 °F 46% 30.09 in 10.0 mi WNW 8.1 mph 17.3 mph N/A   Mostly Cloudy
5:35 PM 30.0 °F 24.1 °F 13.1 °F 49% 30.09 in 10.0 mi NW 5.8 mph - N/A   Scattered Clouds
5:55 PM 30.0 °F 24.1 °F 13.1 °F 49% 30.09 in 10.0 mi WNW 5.8 mph - N/A   Mostly Cloudy
6:15 PM 29.3 °F 23.2 °F 14.4 °F 54% 30.10 in 10.0 mi NW 5.8 mph - N/A   Overcast
6:35 PM 29.3 °F 23.2 °F 13.1 °F 51% 30.10 in 10.0 mi WNW 5.8 mph - N/A   Overcast
6:55 PM 29.3 °F 24.3 °F 14.2 °F 53% 30.10 in 10.0 mi NW 4.6 mph - N/A   Overcast
7:15 PM 29.3 °F 23.2 °F 14.0 °F 53% 30.11 in 10.0 mi NW 5.8 mph - N/A   Overcast
7:35 PM 29.3 °F 21.5 °F 13.8 °F 53% 30.11 in 10.0 mi WNW 8.1 mph - N/A   Overcast
7:55 PM 28.8 °F 22.6 °F 12.6 °F 51% 30.11 in 10.0 mi WNW 5.8 mph - N/A   Overcast
8:15 PM 28.8 °F 20.9 °F 13.5 °F 53% 30.11 in 10.0 mi WNW 8.1 mph - N/A   Overcast
8:35 PM 27.7 °F 20.4 °F 14.2 °F 57% 30.12 in 10.0 mi WNW 6.9 mph - N/A   Mostly Cloudy
8:55 PM 27.1 °F 21.8 °F 13.6 °F 57% 30.12 in 10.0 mi WNW 4.6 mph - N/A   Scattered Clouds
9:15 PM 27.0 °F 21.6 °F 14.0 °F 58% 30.12 in 10.0 mi WNW 4.6 mph - N/A   Mostly Cloudy
9:35 PM 26.6 °F 20.0 °F 14.0 °F 59% 30.13 in 10.0 mi WNW 5.8 mph - N/A   Mostly Cloudy
9:55 PM 27.1 °F 18.2 °F 13.6 °F 57% 30.13 in 10.0 mi WNW 9.2 mph - N/A   Mostly Cloudy
10:15 PM 27.3 °F 20.9 °F 14.0 °F 57% 30.13 in 10.0 mi NW 5.8 mph - N/A   Overcast
10:35 PM 27.0 °F 18.7 °F 13.1 °F 56% 30.13 in 10.0 mi WNW 8.1 mph 17.3 mph N/A   Overcast
10:55 PM 26.6 °F 20.0 °F 12.2 °F 55% 30.13 in 10.0 mi West 5.8 mph - N/A   Overcast
11:15 PM 26.4 °F 20.9 °F 12.9 °F 57% 30.12 in 10.0 mi WNW 4.6 mph - N/A   Overcast
11:35 PM 26.2 °F 19.6 °F 13.3 °F 58% 30.12 in 10.0 mi NW 5.8 mph - N/A   Overcast
11:55 PM 26.1 °F 19.4 °F 13.3 °F 59% 30.12 in 10.0 mi NW 5.8 mph - N/A   Overcast